Погода в Лосево

Россия / Костромская область     58°55′32″N   42°19′59″E
темп.,
°C
ветер,
м/с
пор.,
м/с
влажн.,
%
обл.,
%
осадки,
мм/ч
давл.,
гПа
погр.,
м
23 апреля, пт
пт2300:00+4ю39955 0.0 1017200
03:00+3ююв289626 0.0 1017163
06:00+4ююв3109180 0.0 1017247
09:00+11ю5116945 0.0 1017726
12:00+14ю6105834 0.1 10161541
15:00+15ю59617 1.6 10151470
18:00+12ююв51166100 0.3 1015928
21:00+10ююв5127996 0.6 1015446
24 апреля, сб
сб2400:00+8юв5138346 0.0 1014476
03:00+7юв4138671 0.2 1013432
06:00+7юв4138460 0.3 1012451
09:00+11юв5126955 0.3 1010930
12:00+14юв711555 0.4 10081780
15:00+14юв610569 1.1 10061783
18:00+12вюв6115836 0.3 10051200
21:00+8вюв6137973 0.3 1004817
25 апреля, вс
вс2500:00+6вюв61182100 0.0 1002784
03:00+6в41088100 0.1 1000874
06:00+5вюв4794100 2.5 998915
09:00+4юв3697100 5.4 998773
12:00+1зюз41099100 3.3 999482
15:00+2зюз61496100 6.3 1001894
18:00+2зюз61396100 1.2 10021024
21:00+2зюз61386100 1.9 10031079
26 апреля, пн
пн2600:00+1юз51185100 0.1 1004943
03:00+1юз51384100 0.1 1004820
06:00+1юз51287100 0.0 1004839
09:00+4юз51180100 0.0 10051183
12:00+6зюз6106390 0.4 10061714
15:00+7зюз6106291 1.0 10061799
18:00+5зюз497019 0.4 10071165
21:00+1ююз298915 0.4 1007234
27 апреля, вт
вт2700:000юз39928 0.0 1007236
03:00−1юз39937 0.0 1007239
06:000ююз398514 0.0 1006311
09:00+5юз366512 0.0 10051141
12:00+7зюз3548100 0.2 10041999
15:00+8зюз344488 0.4 10031780
18:00+6зюз245868 0.3 1002315
21:00+1з227628 0.3 100322